Home   Weather   Qaanaaq   Past weeks
Flag for Greenland

Past Weather in Qaanaaq, Greenland — Yesterday and Last 2 Weeks

Now
10 °F

Partly sunny.


Feels Like: 10 °F
Forecast: 11 / 3 °F
Wind: No wind

Location: Thule A. B.

Current Time: Apr 5, 2020 at 9:10:51 am

Latest Report: Apr 5, 2020 at 7:56 am


Visibility: N/A

Pressure: 30.47 "Hg

Humidity: 72%

Dew Point: 3 °F

Location of QaanaaqLocation

Past Weather in Qaanaaq — Graph

°F

Qaanaaq Temperature Yesterday

Maximum temperature yesterday: 10 °F (at 3:56 pm)
Minimum temperature yesterday: -8 °F (at 7:56 am)
Average temperature yesterday: 1 °F

High & Low Weather Summary for the Past Weeks

 TemperatureHumidityPressure
High18 °F (Mar 28, 11:24 am)100% (Mar 28, 1:06 pm)31.00 "Hg (Mar 28, 1:06 pm)
Low-18 °F (Mar 30, 6:56 am)52% (Mar 28, 5:56 am)28.06 "Hg (Apr 2, 12:56 pm)
Average1 °F83%29.81 "Hg
* Reported Mar 21 6:56 am — Apr 5 7:56 am, Qaanaaq. Weather by CustomWeather, © 2020

Note: Actual official high and low records may vary slightly from our data, if they occured in-between our weather recording intervals... More about our weather records

Qaanaaq Weather History for the Previous 24 Hours

Scroll right to see more
 ConditionsComfort  
Time TempWeatherWind HumidityBarometerVisibility
7:56 am
Sun, Apr 5
10 °FPartly sunny.No wind72%30.47 "HgN/A
6:56 am10 °FOvercast.10 mph79%30.48 "HgN/A
5:56 am9 °FOvercast.12 mph78%30.49 "HgN/A
4:56 am7 °FPassing clouds.13 mph80%30.50 "HgN/A
3:56 am7 °FClear.10 mph78%30.52 "HgN/A
2:56 am5 °FClear.7 mph78%30.53 "HgN/A
1:56 am5 °FClear.10 mph78%30.54 "HgN/A
12:56 am3 °FClear.9 mph78%30.56 "HgN/A
11:56 pm
Sat, Apr 4
5 °FClear.8 mph78%30.57 "HgN/A
10:56 pm3 °FSunny.12 mph78%30.59 "HgN/A
9:56 pm5 °FSunny.7 mph78%30.59 "HgN/A
8:56 pm5 °FSunny.5 mph78%30.60 "HgN/A
7:56 pm7 °FSunny.No wind78%30.62 "HgN/A
6:56 pm9 °FSunny.3 mph78%30.62 "HgN/A
5:56 pm9 °FSunny.No wind78%30.62 "HgN/A
3:56 pm10 °FSunny.No wind72%30.62 "HgN/A
2:56 pm9 °FSunny.No wind72%30.63 "HgN/A
1:56 pm5 °FSunny.5 mph85%30.63 "HgN/A
12:56 pm5 °FSunny.3 mph72%30.66 "HgN/A
11:56 am1 °FSunny.7 mph78%30.67 "HgN/A
10:56 am0 °FSunny.3 mph78%30.68 "HgN/A
9:56 am0 °FSunny.7 mph78%30.69 "HgN/A
Weather by CustomWeather, © 2020

See weather overview

Advertising